INMARSAT 3-F1

Last updated on Thu Jul 03 2025 00:02:44 GMT+0000 (Coordinated Universal Time)

1 23839U 96020A 25183.43162855 -.00000088 00000+0 00000+0 0 9990 2 23839 9.8682 49.7607 0005160 78.7633 207.7893 0.99978503106754
UTC large
Height (km)
Speed (km/s)
/
Latitude / Longitude
Inclination (degrees)
Orbital Period (minutes)
Azimuth
Elevation
Range (km)
Doppler Factor

Next 0 passes for location: London (51.5072 / 0.1276)

Sorry there are no passes over London.